User: anonymous   Login
Location: Unspecified
(0.0000°N, 0.0000°E)
Time: 06:10:53
(UTC+00:00)
Language:

Tiros 1 despin weight - Orbit

View from above orbital plane
View from above orbital plane
View from above satellite
View from above satellite

Ground track
Ground track

The orbit data is extracted from the following two-line orbital elements,

1 00115U 60002D   16237.73864530  .00000009  00000-0  28400-4 0  9997
2 00115  48.1669 128.0921 0035128 234.2442 125.5202 14.82852353  6224
Epoch (UTC): 24 August 2016 17:43:38
Eccentricity: 0.0035128
inclination: 48.1669°
perigee height: 596 km
apogee height: 645 km
right ascension of ascending node: 128.0921°
argument of perigee: 234.2442°
revolutions per day: 14.82852353
mean anomaly at epoch: 125.5202°
orbit number at epoch: 622

The dashed part of the orbit path shows where the satellite is in the earth's shadow,  

DLR